Home > Weather > Güstrow > Past weeks

Flag for Germany Weather for the Past 2 Weeks in Güstrow, Mecklenburg-Western Pomerania, Germany

Now
59 °F

Passing clouds.


Feels Like: 56 °F
Forecast: 38 / 64 °F
Wind: 14 mph from North

Location: Laage

Current Time: May 1, 2016 at 4:22:45 PM

Latest Report: May 1, 2016 at 3:20 PM


Visibility: N/A

Pressure: 30.27 "Hg

Humidity: 59%

Dew Point: 45 °F

Location of GüstrowLocation

Historic Weather in Güstrow — Graph

°F

Güstrow Temperature Yesterday

Maximum temperature yesterday: 61 °F (at 3:20 PM)
Minimum temperature yesterday: 45 °F (at 11:20 PM)
Average temperature yesterday: 51 °F

High & Low Weather Summary for the Past Weeks

 TemperatureHumidityPressure
High61 °F (Apr 30, 3:20 PM)100% (Apr 21, 5:20 AM)30.36 "Hg (Apr 21, 5:20 AM)
Low32 °F (Apr 25, 3:20 AM)27% (Apr 23, 6:20 PM)29.42 "Hg (Apr 26, 3:20 AM)
Average44 °F73%29.88 "Hg
* Reported Apr 16 2:20 PM — May 1 2:20 PM, Güstrow, Weather by CustomWeather, © 2016

Note: Actual official high and low records may vary slightly from our data, if they occured in-between our weather recording intervals... More about our weather records

Advertising

Güstrow Weather History for the Previous 24 Hours

Scroll right to see more
 ConditionsComfort  
Time TempWeatherWind HumidityBarometerVisibility
2:20 PM
Sun, May 1
59 °FPassing clouds.13 mph63%30.27 "HgN/A
1:20 PM59 °FPassing clouds.7 mph63%30.27 "HgN/A
12:20 PM57 °FPassing clouds.7 mph59%30.27 "HgN/A
11:20 AM55 °FPassing clouds.8 mph67%30.27 "HgN/A
10:20 AM52 °FBroken clouds.8 mph77%30.27 "HgN/A
9:20 AM48 °FBroken clouds.8 mph87%30.27 "HgN/A
8:20 AM46 °FPartly sunny.9 mph87%30.24 "HgN/A
7:20 AM45 °FPartly sunny.7 mph93%30.24 "HgN/A
6:20 AM45 °FPassing clouds.6 mph93%30.21 "HgN/A
5:20 AM45 °FPassing clouds.5 mph93%30.21 "HgN/A
4:20 AM45 °FPassing clouds.6 mph93%30.21 "HgN/A
3:20 AM45 °FPassing clouds.6 mph87%30.18 "HgN/A
2:20 AM45 °FPassing clouds.6 mph87%30.18 "HgN/A
1:20 AM45 °FPassing clouds.12 mph87%30.18 "HgN/A
12:20 AM45 °FPartly cloudy.10 mph87%30.18 "HgN/A
11:20 PM
Sat, Apr 30
45 °FPartly cloudy.12 mph87%30.18 "HgN/A
10:20 PM46 °FSprinkles. Passing clouds.12 mph87%30.15 "HgN/A
9:20 PM46 °FPartly sunny.15 mph82%30.15 "HgN/A
8:20 PM46 °FPartly sunny.13 mph82%30.12 "HgN/A
7:20 PM48 °FSprinkles. Partly sunny.9 mph76%30.15 "HgN/A
6:20 PM52 °FPartly sunny.16 mph67%30.09 "HgN/A
5:20 PM55 °FPartly sunny.12 mph59%30.09 "HgN/A
4:20 PM59 °FBroken clouds.5 mph45%30.07 "HgN/A
Weather by CustomWeather, © 2016

See weather overviewHow to use our weather pages